Danville, IN

2:07 AM EDT on August 19, 2017 (GMT -0400)
Vermilion County

Weather History for KDNV - March, 2013

Change the Weather History Date:

Friday, March 1, 2013

  Actual Average (KLAF) Record (KLAF)
Temperature  
Mean Temperature 30 °F -  
Max Temperature 32 °F 44 °F 67 °F (1992)
Min Temperature 27 °F 25 °F 7 °F (1980)
Degree Days  
Heating Degree Days 35    
Moisture  
Dew Point 28 °F    
Average Humidity 89    
Maximum Humidity 96    
Minimum Humidity 80    
Precipitation  
Precipitation 0.01 in - - ()
Sea Level Pressure  
Sea Level Pressure 30.04 in    
Wind  
Wind Speed 10 mph (NNW)    
Max Wind Speed 16 mph    
Max Gust Speed 22 mph    
Visibility 8 miles    
Events Rain , Snow    
Averages and records for this station are not official NWS values.
T = Trace of Precipitation, MM = Missing Value Source: NWS Daily Summary

Daily Weather History Graph

Daily Weather History Graph

Search for Another Location

Airport or City:

Trip Planner

Search our weather history database for the weather conditions in past years. The results will help you decide how hot, cold, wet, or windy it might be!

Date:

Astronomy

Mar. 01, 2013 Rise Set
Actual Time 6:23 AM CST 5:42 PM CST
Civil Twilight 5:56 AM CST 6:09 PM CST
Nautical Twilight 5:24 AM CST 6:41 PM CST
Astronomical Twilight 4:53 AM CST 7:12 PM CST
Moon 10:15 PM CST (3/1) 8:09 AM CST (3/1)
Length of Visible Light 12h 13m
Length of Day
11h 18m
Waning Gibbous, 83% of the Moon is Illuminated
Mar 1
Waning Gibbous
Mar 4
Last Quarter
Mar 11
New
Mar 19
First Quarter
Mar 27
Full

Hourly Weather History & Observations

Time (CST) Temp. Windchill Dew Point Humidity Pressure Visibility Wind Dir Wind Speed Gust Speed Precip Events Conditions
12:15 AM 31.8 °F 23.9 °F 28.0 °F 86% 30.00 in 10.0 mi NNW 9.2 mph - N/A   Overcast
12:35 AM 31.6 °F 23.1 °F 28.4 °F 88% 30.00 in 10.0 mi North 10.4 mph - N/A   Overcast
12:55 AM 31.5 °F 22.3 °F 28.2 °F 88% 30.00 in 10.0 mi North 11.5 mph - N/A Snow Light Snow
1:15 AM 31.3 °F 22.7 °F 27.7 °F 87% 29.99 in 10.0 mi North 10.4 mph - N/A   Overcast
1:35 AM 31.1 °F 21.9 °F 27.3 °F 86% 29.99 in 10.0 mi North 11.5 mph - N/A   Overcast
1:55 AM 32.0 °F 24.8 °F 26.6 °F 80% 29.99 in 10.0 mi NNW 8.1 mph - N/A   Overcast
2:15 AM 31.1 °F 23.7 °F 27.1 °F 85% 29.99 in 10.0 mi NNW 8.1 mph - N/A   Overcast
2:35 AM 31.1 °F 23.7 °F 27.1 °F 85% 29.99 in 10.0 mi NNW 8.1 mph - N/A   Overcast
2:55 AM 30.2 °F 22.6 °F 26.6 °F 86% 29.98 in 10.0 mi NNW 8.1 mph - N/A   Overcast
3:15 AM 30.7 °F 22.6 °F 25.9 °F 82% 29.98 in 10.0 mi NNW 9.2 mph - N/A   Overcast
3:35 AM 30.6 °F 22.4 °F 26.1 °F 83% 29.98 in 10.0 mi NNW 9.2 mph - N/A   Overcast
3:55 AM 30.6 °F 21.2 °F 25.9 °F 83% 29.99 in 10.0 mi NNW 11.5 mph - 0.01 in   Overcast
4:15 AM 30.2 °F 21.9 °F 26.1 °F 85% 29.99 in 10.0 mi NNW 9.2 mph - N/A   Overcast
4:35 AM 30.0 °F 20.5 °F 26.2 °F 86% 30.00 in 10.0 mi NNW 11.5 mph - N/A   Overcast
4:55 AM 30.0 °F 21.7 °F 26.1 °F 85% 30.00 in 10.0 mi NNW 9.2 mph - N/A   Overcast
5:15 AM 29.8 °F 21.5 °F 26.2 °F 86% 30.00 in 10.0 mi NNW 9.2 mph - N/A   Overcast
5:35 AM 29.8 °F 22.2 °F 26.4 °F 87% 30.00 in 10.0 mi NNW 8.1 mph - N/A   Overcast
5:55 AM 29.7 °F 21.3 °F 26.4 °F 88% 30.00 in 10.0 mi NNW 9.2 mph - N/A   Overcast
6:15 AM 29.3 °F 20.8 °F 26.4 °F 89% 30.00 in 10.0 mi NNW 9.2 mph - N/A   Overcast
6:35 AM 29.3 °F 22.3 °F 26.6 °F 90% 30.01 in 10.0 mi NNW 6.9 mph - N/A   Overcast
6:55 AM 29.5 °F 20.4 °F 26.8 °F 90% 30.01 in 10.0 mi North 10.4 mph - N/A   Overcast
7:15 AM 29.3 °F 19.1 °F 27.3 °F 92% 30.02 in 2.5 mi NNW 12.7 mph - N/A Snow Light Snow
7:35 AM 29.1 °F 20.6 °F 27.1 °F 92% 30.02 in 7.0 mi NNW 9.2 mph - N/A   Overcast
7:55 AM 28.9 °F 19.8 °F 27.1 °F 93% 30.03 in 4.0 mi NNW 10.4 mph - N/A Snow Light Snow
8:15 AM 29.1 °F 20.6 °F 27.5 °F 94% 30.03 in 4.0 mi NNW 9.2 mph - N/A   Overcast
8:35 AM 29.1 °F 20.0 °F 27.5 °F 94% 30.03 in 7.0 mi North 10.4 mph - N/A Snow Light Snow
8:55 AM 29.3 °F 20.8 °F 27.3 °F 92% 30.03 in 7.0 mi North 9.2 mph - N/A   Overcast
9:15 AM 29.8 °F 19.8 °F 27.5 °F 91% 30.03 in 10.0 mi North 12.7 mph - N/A   Overcast
9:35 AM 29.8 °F 20.3 °F 27.3 °F 90% 30.03 in 10.0 mi North 11.5 mph - N/A   Overcast
9:55 AM 30.0 °F 20.5 °F 27.5 °F 90% 30.03 in 10.0 mi North 11.5 mph - N/A   Overcast
10:15 AM 30.0 °F 21.1 °F 28.0 °F 92% 30.04 in 3.0 mi NNW 10.4 mph - N/A   Overcast
10:35 AM 30.2 °F 21.9 °F 28.6 °F 94% 30.04 in 2.0 mi NNW 9.2 mph - N/A Snow Light Snow
10:55 AM 30.4 °F 22.2 °F 29.3 °F 96% 30.04 in 1.5 mi NNW 9.2 mph - N/A Snow Light Snow
11:15 AM 30.2 °F 21.3 °F 29.3 °F 96% 30.04 in 1.8 mi North 10.4 mph - N/A Rain Light Freezing Rain
11:35 AM 30.9 °F 22.8 °F 29.7 °F 95% 30.04 in 4.0 mi North 9.2 mph - N/A Snow Light Snow
11:55 AM 31.1 °F 22.4 °F 29.8 °F 95% 30.03 in 1.8 mi NNW 10.4 mph - N/A Snow Light Snow
12:15 PM 31.1 °F 23.1 °F 30.2 °F 96% 30.03 in 1.8 mi North 9.2 mph - N/A Snow Light Snow
12:35 PM 31.5 °F 23.5 °F 30.4 °F 96% 30.03 in 2.0 mi North 9.2 mph - N/A Rain Light Freezing Rain
12:55 PM 31.6 °F 22.6 °F 30.6 °F 96% 30.02 in 2.0 mi North 11.5 mph - N/A Rain Light Freezing Rain
1:15 PM 32.0 °F 22.1 °F 30.7 °F 95% 30.02 in 4.0 mi NNE 13.8 mph 17.3 mph N/A   Overcast
1:35 PM 32.0 °F 21.6 °F 30.2 °F 93% 30.02 in 10.0 mi NNE 15.0 mph - N/A   Overcast
1:55 PM 32.0 °F 23.0 °F 30.2 °F 93% 30.02 in 10.0 mi North 11.5 mph - N/A   Overcast
2:15 PM 32.0 °F 22.1 °F 30.0 °F 92% 30.02 in 5.0 mi North 13.8 mph - N/A Rain Light Rain
2:35 PM 32.0 °F 22.1 °F 30.4 °F 94% 30.03 in 5.0 mi North 13.8 mph - N/A   Overcast
2:55 PM 32.0 °F 23.0 °F 30.2 °F 93% 30.03 in 5.0 mi North 11.5 mph - N/A   Overcast
3:15 PM 32.0 °F 23.6 °F 30.2 °F 93% 30.03 in 7.0 mi North 10.4 mph - N/A   Overcast
3:35 PM 32.0 °F 23.6 °F 30.0 °F 92% 30.03 in 7.0 mi North 10.4 mph - N/A   Overcast
3:55 PM 32.0 °F 23.6 °F 30.2 °F 93% 30.03 in 7.0 mi North 10.4 mph - N/A   Overcast
4:15 PM 32.0 °F 24.2 °F 30.4 °F 94% 30.04 in 5.0 mi North 9.2 mph - N/A   Light Drizzle
4:35 PM 32.0 °F 26.4 °F 30.4 °F 94% 30.04 in 4.0 mi North 5.8 mph - N/A Rain Light Rain
4:55 PM 32.0 °F 23.0 °F 30.2 °F 93% 30.04 in 7.0 mi North 11.5 mph - N/A Rain Light Rain
5:15 PM 32.0 °F 24.2 °F 30.0 °F 92% 30.05 in 10.0 mi NNW 9.2 mph - N/A   Overcast
5:35 PM 32.0 °F 23.6 °F 29.1 °F 89% 30.06 in 10.0 mi North 10.4 mph - N/A   Overcast
5:55 PM 32.0 °F 23.0 °F 28.6 °F 87% 30.06 in 10.0 mi North 11.5 mph - N/A   Overcast
6:15 PM 31.5 °F 21.8 °F 27.9 °F 87% 30.07 in 10.0 mi North 12.7 mph 18.4 mph N/A   Overcast
6:35 PM 31.1 °F 20.9 °F 27.3 °F 86% 30.08 in 10.0 mi North 13.8 mph 21.9 mph N/A   Overcast
6:55 PM 30.9 °F 20.2 °F 26.6 °F 84% 30.08 in 10.0 mi North 15.0 mph 21.9 mph N/A Snow Light Snow
7:15 PM 30.7 °F 19.6 °F 26.6 °F 85% 30.08 in 10.0 mi North 16.1 mph 20.7 mph N/A Snow Light Snow
7:35 PM 30.2 °F 19.3 °F 26.6 °F 86% 30.08 in 10.0 mi North 15.0 mph - N/A Snow Light Snow
7:55 PM 30.0 °F 18.7 °F 26.4 °F 86% 30.09 in 10.0 mi North 16.1 mph - N/A Snow Light Snow
8:15 PM 30.2 °F 19.3 °F 26.6 °F 86% 30.09 in 10.0 mi North 15.0 mph - N/A   Overcast
8:35 PM 30.2 °F 19.3 °F 26.6 °F 86% 30.09 in 10.0 mi North 15.0 mph 19.6 mph N/A   Overcast
8:55 PM 29.3 °F 18.6 °F 25.7 °F 86% 30.10 in 10.0 mi North 13.8 mph - N/A   Overcast
9:15 PM 30.2 °F 18.9 °F 26.6 °F 86% 30.10 in 10.0 mi North 16.1 mph - N/A   Overcast
9:35 PM 28.9 °F 18.2 °F 25.3 °F 86% 30.10 in 10.0 mi North 13.8 mph - N/A   Overcast
9:55 PM 28.9 °F 18.6 °F 25.2 °F 86% 30.10 in 10.0 mi NNW 12.7 mph - N/A   Unknown
10:15 PM 29.1 °F 20.0 °F 25.5 °F 86% 30.10 in 10.0 mi NNW 10.4 mph - N/A   Unknown
10:35 PM 28.8 °F 19.5 °F 25.9 °F 89% 30.09 in 10.0 mi NNW 10.4 mph - N/A   Unknown
10:55 PM 28.4 °F 19.1 °F 26.1 °F 91% 30.09 in 10.0 mi NNW 10.4 mph - N/A   Overcast
11:15 PM 28.4 °F 19.1 °F 25.7 °F 90% 30.09 in 10.0 mi North 10.4 mph - N/A   Overcast
11:35 PM 28.0 °F 18.1 °F 25.5 °F 90% 30.09 in 10.0 mi North 11.5 mph - N/A   Scattered Clouds
11:55 PM 27.9 °F 17.8 °F 25.3 °F 90% 30.09 in 10.0 mi NNW 11.5 mph - N/A   Clear